Flag for Australia Weather past 2 weeks in Hobart, Tasmania, Australia

Now
50 °F

Clear.


Feels Like: 47 °F
Forecast: 47 / 68 °F
Wind: 7 mph from Northwest

Location: Hobart Airport


UV Index: 3 (Moderate)

Visibility: 10 mi


Pressure: 30.12 "Hg

Humidity: 88%

Dew point: 46 °F

Location of HobartLocation

Historic Weather in Hobart

°F

Hobart temperature yesterday

Maximum temperature yesterday: 66 °F (at 2:30 PM)
Minimum temperature yesterday: 45 °F (at 4:30 AM)
Average temperature yesterday: 55 °F

Past Weeks' High & Low Weather Summary

 TemperatureHumidityPressure
High77 °F (Apr 2, 6:00 AM)100% (Apr 7, 6:00 AM)30.39 "Hg (Apr 7, 6:00 AM)
Low45 °F (Apr 16, 4:30 AM)34% (Apr 13, 2:00 PM)29.65 "Hg (Apr 2, 6:00 AM)
Average58 °F70%30.17 "Hg
* Reported Apr 2 6:00 AM — Apr 17 5:00 AM, Hobart, Weather by CustomWeather, © 2014

Note: Actual official high and low records may vary slightly from our data, if they occured in-between our weather recording intervals... More about our weather records

Advertising

Historic Weather Conditions — Data for Previous 24 hours

 ConditionsComfort  
Time TempWeatherWind HumidityBarometerVisibility
5:00 AM
Apr 17
50 °FClear.7 mph88%30.12 "Hg10 mi
4:30 AM48 °FClear.9 mph94%30.12 "Hg10 mi
4:00 AM48 °FClear.6 mph94%30.12 "Hg10 mi
3:30 AM48 °FClear.5 mph94%30.12 "Hg10 mi
3:00 AM48 °FClear.6 mph94%30.12 "Hg10 mi
2:30 AM50 °FClear.5 mph94%30.12 "Hg10 mi
2:00 AM48 °FClear.1 mph94%30.12 "Hg10 mi
1:30 AM50 °FClear.6 mph94%30.12 "Hg10 mi
1:00 AM50 °FClear.3 mph94%30.12 "Hg10 mi
12:00 AM50 °FClear.5 mph94%30.12 "Hg10 mi
11:00 PM
Apr 16
50 °FPassing clouds.3 mph94%30.12 "HgN/A
10:30 PM54 °FPassing clouds.6 mph88%30.15 "HgN/A
10:00 PM54 °FPassing clouds.5 mph88%30.12 "HgN/A
9:30 PM55 °FPassing clouds.6 mph82%30.12 "HgN/A
9:00 PM54 °FPassing clouds.5 mph88%30.12 "HgN/A
8:30 PM55 °FPassing clouds.8 mph82%30.12 "HgN/A
8:00 PM55 °FPassing clouds.2 mph82%30.12 "HgN/A
7:30 PM55 °FPassing clouds.3 mph82%30.12 "HgN/A
7:00 PM57 °FPassing clouds.9 mph77%30.12 "HgN/A
6:30 PM59 °FPassing clouds.9 mph72%30.12 "HgN/A
6:00 PM59 °FPassing clouds.8 mph72%30.12 "HgN/A
5:30 PM61 °FPassing clouds.9 mph68%30.12 "HgN/A
5:00 PM63 °FPassing clouds.10 mph64%30.09 "HgN/A
4:30 PM64 °FPartly sunny.7 mph56%30.09 "HgN/A
4:00 PM64 °FPartly sunny.7 mph56%30.09 "HgN/A
3:30 PM64 °FPartly sunny.2 mph60%30.09 "HgN/A
3:00 PM66 °FPartly sunny.1 mph52%30.12 "HgN/A
2:30 PM66 °FScattered clouds.6 mph52%30.12 "HgN/A
2:00 PM64 °FPartly sunny.7 mph60%30.12 "HgN/A
1:00 PM64 °FPartly sunny.5 mph56%30.12 "HgN/A
12:30 PM64 °FPartly sunny.7 mph52%30.15 "HgN/A
12:00 PM64 °FScattered clouds.7 mph56%30.18 "HgN/A
11:30 AM63 °FPassing clouds.5 mph59%30.18 "HgN/A
11:00 AM61 °FPassing clouds.6 mph63%30.18 "HgN/A
9:00 AM52 °FPassing clouds.9 mph77%30.21 "HgN/A
8:30 AM50 °FPassing clouds.9 mph82%30.24 "HgN/A
8:00 AM46 °FPassing clouds.8 mph87%30.24 "HgN/A
7:00 AM45 °FPassing clouds.9 mph93%30.21 "HgN/A
6:30 AM45 °FPassing clouds.8 mph93%30.21 "HgN/A
6:00 AM45 °FPassing clouds.9 mph93%30.21 "HgN/A
Weather by CustomWeather, © 2014

See weather overview